Air Quality Table

TIMESTAMP NO2 SO2 O3 PM10 PM2.5 CO TEMP HUM WS WD NO
2021-06-18 13:00 0.39 ug/m3 0.19 ug/m3 87.45 ug/m3 21.6 ug/m3 15.1 ug/m3 0.12 mg/m3 22.84 C 78.5 % 5.21 m/s 215.35 Deg 0.03 ug/m3
2021-06-18 12:00 1.34 ug/m3 0.4 ug/m3 95.14 ug/m3 21.05 ug/m3 13.93 ug/m3 0.13 mg/m3 23.7 C 72.73 % 4.6 m/s 204.56 Deg 0.16 ug/m3
2021-06-18 11:00 1.37 ug/m3 0.49 ug/m3 101.68 ug/m3 15.98 ug/m3 12.9 ug/m3 0.13 mg/m3 24.32 C 70.4 % 1.84 m/s 226.61 Deg 0.11 ug/m3
2021-06-18 10:00 1.03 ug/m3 0.33 ug/m3 97.57 ug/m3 16.05 ug/m3 12.05 ug/m3 0.13 mg/m3 23.59 C 72.49 % 2.51 m/s 12.77 Deg 0.09 ug/m3
2021-06-18 09:00 1.45 ug/m3 0.37 ug/m3 96.35 ug/m3 20.93 ug/m3 12.7 ug/m3 0.13 mg/m3 23.57 C 70.95 % 2.06 m/s 164.63 Deg 0.15 ug/m3
2021-06-18 08:00 3.65 ug/m3 0.39 ug/m3 91.91 ug/m3 20.6 ug/m3 10.45 ug/m3 0.14 mg/m3 23.09 C 73.31 % 1.25 m/s 156.2 Deg 0.47 ug/m3
2021-06-18 07:00 4.05 ug/m3 0.24 ug/m3 87.31 ug/m3 17.15 ug/m3 12 ug/m3 0.14 mg/m3 21.64 C 80.46 % 1.6 m/s 109.91 Deg 0.4 ug/m3
2021-06-18 06:00 1.33 ug/m3 0.05 ug/m3 92.05 ug/m3 17.63 ug/m3 13.93 ug/m3 0.13 mg/m3 20.83 C 83.82 % 0.63 m/s 85.59 Deg 0.06 ug/m3
2021-06-18 05:00 2.01 ug/m3 0.07 ug/m3 87.89 ug/m3 17.88 ug/m3 11.6 ug/m3 0.13 mg/m3 20.71 C 83.1 % 1.22 m/s 110.05 Deg 0.02 ug/m3
2021-06-18 04:00 2.4 ug/m3 0.15 ug/m3 88.73 ug/m3 22.15 ug/m3 10.48 ug/m3 0.14 mg/m3 20.88 C 81.01 % 0.67 m/s 85.34 Deg 0.02 ug/m3
2021-06-18 03:00 2.19 ug/m3 0.06 ug/m3 89.15 ug/m3 16.78 ug/m3 8.53 ug/m3 0.13 mg/m3 20.91 C 80.65 % 1.03 m/s 283.78 Deg 0.02 ug/m3
2021-06-18 02:00 1.6 ug/m3 0.07 ug/m3 86.73 ug/m3 20.05 ug/m3 13.45 ug/m3 0.12 mg/m3 21.07 C 80.21 % 1.87 m/s 151.02 Deg 0.01 ug/m3
2021-06-18 01:00 2 ug/m3 0.09 ug/m3 86.72 ug/m3 14 ug/m3 12.6 ug/m3 0.14 mg/m3 21.22 C 79.14 % 1.34 m/s 164.13 Deg 0.01 ug/m3
2021-06-18 00:00 1.64 ug/m3 0.07 ug/m3 90.26 ug/m3 13.48 ug/m3 17.78 ug/m3 0.14 mg/m3 21.27 C 79.27 % 3.2 m/s 111.93 Deg 0.01 ug/m3
2021-06-17 23:00 1.02 ug/m3 0.07 ug/m3 92.61 ug/m3 13.08 ug/m3 11.7 ug/m3 0.14 mg/m3 21.27 C 80.44 % 3.11 m/s 157.42 Deg 0.01 ug/m3
2021-06-17 22:00 0.82 ug/m3 0.12 ug/m3 92.61 ug/m3 11.43 ug/m3 8.8 ug/m3 0.14 mg/m3 21.15 C 80.65 % 1.48 m/s 141.14 Deg 0.01 ug/m3
2021-06-17 21:00 0.72 ug/m3 0.07 ug/m3 89.52 ug/m3 10.77 ug/m3 11.97 ug/m3 0.13 mg/m3 21.2 C 80.12 % 2.46 m/s 192.25 Deg 0.01 ug/m3
2021-06-17 20:00 0.78 ug/m3 0.11 ug/m3 95.88 ug/m3 13.5 ug/m3 12.27 ug/m3 0.13 mg/m3 21.47 C 78.25 % 2.8 m/s 200.94 Deg 0.01 ug/m3
2021-06-17 19:00 0.9 ug/m3 0.17 ug/m3 99.07 ug/m3 6.8 ug/m3 11 ug/m3 0.13 mg/m3 21.96 C 75.44 % 3.64 m/s 186.79 Deg 0.01 ug/m3
2021-06-17 18:00 1.14 ug/m3 0.29 ug/m3 99.9 ug/m3 11.98 ug/m3 9.68 ug/m3 0.13 mg/m3 22.51 C 72.83 % 5 m/s 205.59 Deg 0.08 ug/m3
2021-06-17 17:00 0.58 ug/m3 0.3 ug/m3 98.58 ug/m3 18.13 ug/m3 12.15 ug/m3 0.13 mg/m3 22.89 C 70.73 % 5.33 m/s 208.94 Deg 0.03 ug/m3
2021-06-17 16:00 0.54 ug/m3 0.31 ug/m3 99.23 ug/m3 13.53 ug/m3 14.23 ug/m3 0.13 mg/m3 22.93 C 71.61 % 5.62 m/s 213.04 Deg 0.02 ug/m3
2021-06-17 15:00 0.56 ug/m3 0.35 ug/m3 98.12 ug/m3 13.63 ug/m3 12.73 ug/m3 0.13 mg/m3 23.23 C 71.72 % 5.35 m/s 206.89 Deg 0.03 ug/m3
2021-06-17 14:00 0.56 ug/m3 0.38 ug/m3 100.69 ug/m3 20.6 ug/m3 13 ug/m3 0.13 mg/m3 23.07 C 71.47 % 6 m/s 213.13 Deg 0.03 ug/m3
2021-06-17 13:00 0.59 ug/m3 0.36 ug/m3 98.56 ug/m3 5.68 ug/m3 3.33 ug/m3 0.13 mg/m3 23.08 C 72.94 % 5.52 m/s 209.23 Deg 0.05 ug/m3
2021-06-17 12:00 0.72 ug/m3 0.45 ug/m3 102.68 ug/m3 0 ug/m3 0 ug/m3 0.13 mg/m3 23.24 C 67.94 % 5.13 m/s 201.44 Deg 0.06 ug/m3
2021-06-17 11:00 0.69 ug/m3 0.46 ug/m3 104.91 ug/m3 0 ug/m3 0 ug/m3 0.15 mg/m3 22.98 C 70.38 % 4.89 m/s 203 Deg 0.05 ug/m3
2021-06-17 10:00 0.85 ug/m3 0.4 ug/m3 106.78 ug/m3 0 ug/m3 10.73 ug/m3 0.14 mg/m3 22.69 C 71.37 % 4.83 m/s 204.56 Deg 0.08 ug/m3
2021-06-17 09:00 1.43 ug/m3 0.43 ug/m3 105.6 ug/m3 0 ug/m3 3.58 ug/m3 0.13 mg/m3 22.86 C 68.02 % 3.59 m/s 170.37 Deg 0.13 ug/m3
2021-06-17 08:00 2.02 ug/m3 0.39 ug/m3 99.25 ug/m3 0 ug/m3 0 ug/m3 0.14 mg/m3 22.44 C 69.72 % 2.61 m/s 155.03 Deg 0.22 ug/m3
2021-06-17 07:00 2.53 ug/m3 0.24 ug/m3 91.53 ug/m3 18.9 ug/m3 10.43 ug/m3 0.14 mg/m3 21.35 C 83.43 % 1.98 m/s 141.11 Deg 0.23 ug/m3
2021-06-17 06:00 2.67 ug/m3 0.19 ug/m3 91.57 ug/m3 23.78 ug/m3 14.28 ug/m3 0.14 mg/m3 20.27 C 89 % 1.08 m/s 148 Deg 0.09 ug/m3
2021-06-17 05:00 1.6 ug/m3 0.19 ug/m3 96.98 ug/m3 20.6 ug/m3 14.8 ug/m3 0.13 mg/m3 19.85 C 89.1 % 0.86 m/s 121.26 Deg 0.01 ug/m3
2021-06-17 04:00 2.17 ug/m3 0.26 ug/m3 96.03 ug/m3 19.18 ug/m3 16.3 ug/m3 0.13 mg/m3 20 C 87.77 % 0.88 m/s 161.31 Deg 0.02 ug/m3
2021-06-17 03:00 4.75 ug/m3 0.31 ug/m3 87.2 ug/m3 25.08 ug/m3 13.5 ug/m3 0.13 mg/m3 20.1 C 86.06 % 1.8 m/s 166.09 Deg 0.01 ug/m3
2021-06-17 02:00 1.88 ug/m3 0.14 ug/m3 92.56 ug/m3 25.47 ug/m3 11.27 ug/m3 0.11 mg/m3 20.41 C 83.36 % 2.08 m/s 162.24 Deg 0.01 ug/m3
2021-06-17 01:00 0.63 ug/m3 0.08 ug/m3 92.98 ug/m3 11.9 ug/m3 10.2 ug/m3 0.12 mg/m3 20.71 C 80.69 % 2.6 m/s 185.05 Deg 0.02 ug/m3
2021-06-17 00:00 0.7 ug/m3 0.12 ug/m3 95.76 ug/m3 19.4 ug/m3 9.68 ug/m3 0.12 mg/m3 20.89 C 80.4 % 3.55 m/s 188.14 Deg 0.02 ug/m3
2021-06-16 23:00 0.71 ug/m3 0.06 ug/m3 91.61 ug/m3 13.5 ug/m3 9.65 ug/m3 0.12 mg/m3 20.89 C 79.17 % 2.99 m/s 192.43 Deg 0.03 ug/m3
2021-06-16 22:00 1.41 ug/m3 0.09 ug/m3 92.69 ug/m3 19.93 ug/m3 10.15 ug/m3 0.14 mg/m3 21.18 C 76 % 4.16 m/s 185.96 Deg 0.06 ug/m3
2021-06-16 21:00 1.74 ug/m3 0.09 ug/m3 92.57 ug/m3 22.4 ug/m3 14.43 ug/m3 0.13 mg/m3 21.47 C 74.15 % 4.77 m/s 179.57 Deg 0.08 ug/m3
2021-06-16 20:00 2.56 ug/m3 0.15 ug/m3 90.95 ug/m3 30.23 ug/m3 19.4 ug/m3 0.15 mg/m3 21.76 C 74.76 % 5.03 m/s 187.03 Deg 0.17 ug/m3
2021-06-16 19:00 2.14 ug/m3 0.43 ug/m3 91.31 ug/m3 26.23 ug/m3 15.58 ug/m3 0.14 mg/m3 22.32 C 72.26 % 5.98 m/s 186.13 Deg 0.21 ug/m3
2021-06-16 18:00 2.37 ug/m3 0.43 ug/m3 93.88 ug/m3 11.78 ug/m3 13 ug/m3 0.12 mg/m3 22.78 C 68.55 % 6.2 m/s 183.93 Deg 0.3 ug/m3
2021-06-16 17:00 1.19 ug/m3 0.26 ug/m3 94.75 ug/m3 4.18 ug/m3 10.98 ug/m3 0.11 mg/m3 23.38 C 61.58 % 5.65 m/s 196.1 Deg 0.05 ug/m3
2021-06-16 16:00 1.35 ug/m3 0.28 ug/m3 98.02 ug/m3 15.23 ug/m3 10.55 ug/m3 0.11 mg/m3 23.82 C 53.21 % 4.57 m/s 210.17 Deg 0.04 ug/m3
2021-06-16 15:00 1.47 ug/m3 0.33 ug/m3 101.76 ug/m3 -9.73 ug/m3 11.8 ug/m3 0.11 mg/m3 23.98 C 53.05 % 3.98 m/s 227.26 Deg 0.07 ug/m3
2021-06-16 14:00 1.85 ug/m3 0.41 ug/m3 107.65 ug/m3 25.83 ug/m3 11.83 ug/m3 0.11 mg/m3 23.82 C 53.86 % 3.94 m/s 221.04 Deg 0.13 ug/m3
2021-06-16 13:00 1.89 ug/m3 0.45 ug/m3 106.59 ug/m3 13.68 ug/m3 13.28 ug/m3 0.11 mg/m3 23.44 C 58.98 % 3.45 m/s 221.82 Deg 0.13 ug/m3
2021-06-16 12:00 1.72 ug/m3 0.45 ug/m3 104.71 ug/m3 5.88 ug/m3 13.8 ug/m3 0.11 mg/m3 23.38 C 55.15 % 2.72 m/s 229.39 Deg 0.08 ug/m3
2021-06-16 11:00 1.76 ug/m3 0.63 ug/m3 105.97 ug/m3 34.43 ug/m3 10.28 ug/m3 0.12 mg/m3 23.16 C 64.56 % 1.85 m/s 296.23 Deg 0.11 ug/m3
2021-06-16 10:00 1.78 ug/m3 0.57 ug/m3 102.3 ug/m3 22.28 ug/m3 12.18 ug/m3 0.11 mg/m3 23.02 C 56.54 % 2.24 m/s 249.06 Deg 0.09 ug/m3
2021-06-16 09:00 2.52 ug/m3 0.66 ug/m3 98.56 ug/m3 18.25 ug/m3 15.75 ug/m3 0.12 mg/m3 22.67 C 66.97 % 1.84 m/s 226.54 Deg 0.27 ug/m3
2021-06-16 08:00 6 ug/m3 0.89 ug/m3 93.5 ug/m3 20.58 ug/m3 15.18 ug/m3 0.13 mg/m3 22.43 C 65.16 % 1.6 m/s 165.1 Deg 0.8 ug/m3
2021-06-16 07:00 8.6 ug/m3 0.82 ug/m3 85.49 ug/m3 21.3 ug/m3 16.73 ug/m3 0.12 mg/m3 21.34 C 74.57 % 1.59 m/s 101.48 Deg 0.91 ug/m3
2021-06-16 06:00 9.62 ug/m3 0.47 ug/m3 78.13 ug/m3 18.25 ug/m3 14.4 ug/m3 0.13 mg/m3 19.95 C 79.78 % 1.75 m/s 107.04 Deg 0.47 ug/m3
2021-06-16 05:00 5.64 ug/m3 0.38 ug/m3 86.27 ug/m3 22.68 ug/m3 15.58 ug/m3 0.12 mg/m3 19.85 C 79.42 % 1.69 m/s 119.74 Deg 0.02 ug/m3
2021-06-16 04:00 7.52 ug/m3 0.6 ug/m3 79.44 ug/m3 22.85 ug/m3 13.38 ug/m3 0.12 mg/m3 19.75 C 79.28 % 0.81 m/s 92.72 Deg 0.02 ug/m3
2021-06-16 03:00 8.92 ug/m3 0.41 ug/m3 73.14 ug/m3 18.33 ug/m3 12.85 ug/m3 0.12 mg/m3 19.72 C 79.07 % 1.31 m/s 95.74 Deg 0.03 ug/m3
2021-06-16 02:00 8.87 ug/m3 0.24 ug/m3 71.91 ug/m3 21.5 ug/m3 12.93 ug/m3 0.11 mg/m3 20 C 77.91 % 1.8 m/s 111 Deg 0.03 ug/m3
2021-06-16 01:00 6.42 ug/m3 0.2 ug/m3 79.66 ug/m3 24.4 ug/m3 -28.9 ug/m3 0.14 mg/m3 20.41 C 77.48 % 1.91 m/s 133.12 Deg 0.01 ug/m3
2021-06-16 00:00 5.05 ug/m3 0.23 ug/m3 84.8 ug/m3 23.58 ug/m3 3.88 ug/m3 0.14 mg/m3 20.55 C 75.81 % 1.15 m/s 111.37 Deg 0.02 ug/m3
2021-06-15 23:00 5.17 ug/m3 0.27 ug/m3 87.65 ug/m3 21.05 ug/m3 12.85 ug/m3 0.14 mg/m3 20.83 C 75.8 % 1.82 m/s 99.32 Deg 0.02 ug/m3
2021-06-15 22:00 4.73 ug/m3 0.38 ug/m3 92.18 ug/m3 22.48 ug/m3 14.75 ug/m3 0.14 mg/m3 21.22 C 73.73 % 4.91 m/s 115.47 Deg 0.02 ug/m3
2021-06-15 21:00 6.85 ug/m3 0.61 ug/m3 95.87 ug/m3 21.78 ug/m3 14.1 ug/m3 0.14 mg/m3 21.51 C 69.61 % 5.86 m/s 115.38 Deg 0.01 ug/m3
2021-06-15 20:00 3.96 ug/m3 0.72 ug/m3 100.54 ug/m3 23.18 ug/m3 15.25 ug/m3 0.13 mg/m3 21.81 C 65.4 % 6.14 m/s 110.05 Deg 0.03 ug/m3
2021-06-15 19:00 3.25 ug/m3 0.81 ug/m3 102.94 ug/m3 27.1 ug/m3 15.8 ug/m3 0.13 mg/m3 22.61 C 63.15 % 5.86 m/s 106.26 Deg 0.07 ug/m3
2021-06-15 18:00 3.62 ug/m3 0.88 ug/m3 102.06 ug/m3 28.13 ug/m3 20.15 ug/m3 0.14 mg/m3 23.08 C 67.03 % 6.4 m/s 100.33 Deg 0.27 ug/m3
2021-06-15 17:00 1.91 ug/m3 0.97 ug/m3 104.72 ug/m3 34.7 ug/m3 18.75 ug/m3 0.16 mg/m3 23.39 C 70.51 % 6.84 m/s 92 Deg 0.13 ug/m3
2021-06-15 16:00 2.6 ug/m3 1.24 ug/m3 106.13 ug/m3 34.2 ug/m3 18.48 ug/m3 0.17 mg/m3 23.78 C 71.06 % 6.93 m/s 82.89 Deg 0.25 ug/m3
2021-06-15 15:00 1.64 ug/m3 1.1 ug/m3 109.3 ug/m3 24.08 ug/m3 18.18 ug/m3 0.14 mg/m3 24.5 C 69.32 % 6.87 m/s 87.56 Deg 0.13 ug/m3
2021-06-15 14:00 1.73 ug/m3 1.28 ug/m3 112.77 ug/m3 19.88 ug/m3 16.88 ug/m3 0.15 mg/m3 24.77 C 67.54 % 6.03 m/s 91.75 Deg 0.17 ug/m3
2021-06-15 13:00 2.09 ug/m3 1.25 ug/m3 116.91 ug/m3 29.93 ug/m3 17.25 ug/m3 0.15 mg/m3 23.8 C 75.08 % 6.89 m/s 73.27 Deg 0.21 ug/m3
2021-06-15 12:00 3.43 ug/m3 1.98 ug/m3 134.49 ug/m3 27.63 ug/m3 23.88 ug/m3 0.16 mg/m3 23.77 C 73.74 % 6.73 m/s 56.26 Deg 0.19 ug/m3
2021-06-15 11:00 4.39 ug/m3 1.44 ug/m3 130 ug/m3 13.1 ug/m3 24.58 ug/m3 0.18 mg/m3 23.11 C 78.52 % 5.17 m/s 24.11 Deg 0.42 ug/m3
2021-06-15 10:00 3.73 ug/m3 0.86 ug/m3 122.23 ug/m3 9.2 ug/m3 17.95 ug/m3 0.17 mg/m3 22.78 C 88.08 % 4.76 m/s 20.21 Deg 0.43 ug/m3
2021-06-15 09:00 2.99 ug/m3 0.6 ug/m3 116.55 ug/m3 8.7 ug/m3 14.48 ug/m3 0.15 mg/m3 22.05 C 91.91 % 4.43 m/s 16.76 Deg 0.4 ug/m3
2021-06-15 08:00 4.69 ug/m3 0.56 ug/m3 103.22 ug/m3 10.53 ug/m3 15.28 ug/m3 0.15 mg/m3 21.87 C 91.67 % 4.09 m/s 9.63 Deg 0.62 ug/m3
2021-06-15 07:00 8.32 ug/m3 0.52 ug/m3 92.33 ug/m3 14.5 ug/m3 15.25 ug/m3 0.15 mg/m3 21.5 C 93.4 % 4.23 m/s 304.82 Deg 0.82 ug/m3
2021-06-15 06:00 4.45 ug/m3 0.25 ug/m3 100.13 ug/m3 14.18 ug/m3 13.98 ug/m3 0.14 mg/m3 21.02 C 92.82 % 4.3 m/s 293.2 Deg 0.15 ug/m3
2021-06-15 05:00 1.99 ug/m3 0.14 ug/m3 109.4 ug/m3 12.05 ug/m3 11.58 ug/m3 0.14 mg/m3 21.08 C 91.97 % 5.62 m/s 264.88 Deg 0.02 ug/m3
2021-06-15 04:00 1.45 ug/m3 0.09 ug/m3 107.99 ug/m3 11.35 ug/m3 13.83 ug/m3 0.15 mg/m3 21.3 C 89.56 % 5.06 m/s 270.79 Deg 0.01 ug/m3
2021-06-15 03:00 1.18 ug/m3 -0.01 ug/m3 109.44 ug/m3 10.33 ug/m3 13.23 ug/m3 0.15 mg/m3 21.42 C 87.38 % 4.3 m/s 267.36 Deg 0.01 ug/m3
2021-06-15 02:00 0.57 ug/m3 0.01 ug/m3 108.83 ug/m3 14.05 ug/m3 12.85 ug/m3 0.13 mg/m3 21.39 C 88.65 % 3.84 m/s 251.97 Deg 0.01 ug/m3
2021-06-15 01:00 0.61 ug/m3 0.01 ug/m3 108.98 ug/m3 23.8 ug/m3 14.4 ug/m3 0.14 mg/m3 21.44 C 92.23 % 4.87 m/s 244.82 Deg 0.01 ug/m3
2021-06-15 00:00 0.48 ug/m3 -0.01 ug/m3 110.5 ug/m3 19.07 ug/m3 15.87 ug/m3 0.13 mg/m3 21.46 C 94.7 % 4.1 m/s 241.67 Deg 0 ug/m3
2021-06-14 23:00 2.51 ug/m3 0.17 ug/m3 115.78 ug/m3 13.25 ug/m3 14.28 ug/m3 0.14 mg/m3 21.58 C 90.97 % 2.9 m/s 245.41 Deg 0.01 ug/m3
2021-06-14 22:00 1.04 ug/m3 0.32 ug/m3 123.92 ug/m3 12.63 ug/m3 16.43 ug/m3 0.13 mg/m3 21.63 C 84.35 % 2.22 m/s 252.57 Deg 0.01 ug/m3
2021-06-14 21:00 1.51 ug/m3 0.38 ug/m3 124.03 ug/m3 13.7 ug/m3 19.05 ug/m3 0.15 mg/m3 21.75 C 87.7 % 2.71 m/s 244.13 Deg 0.01 ug/m3
2021-06-14 20:00 1.59 ug/m3 0.38 ug/m3 130.48 ug/m3 14.75 ug/m3 18.55 ug/m3 0.15 mg/m3 22.14 C 87.82 % 2.61 m/s 246.18 Deg 0.01 ug/m3
2021-06-14 19:00 1.29 ug/m3 0.55 ug/m3 135.73 ug/m3 17.63 ug/m3 18.95 ug/m3 0.14 mg/m3 23.14 C 74.39 % 2.16 m/s 248.78 Deg 0.03 ug/m3
2021-06-14 18:00 1.23 ug/m3 0.56 ug/m3 135.55 ug/m3 24.73 ug/m3 17.1 ug/m3 0.14 mg/m3 23.33 C 75.51 % 3 m/s 234.6 Deg 0.04 ug/m3
2021-06-14 17:00 2.06 ug/m3 0.54 ug/m3 129.16 ug/m3 22.75 ug/m3 18.58 ug/m3 0.14 mg/m3 24.22 C 72.67 % 4.18 m/s 214.54 Deg 0.1 ug/m3
2021-06-14 16:00 3.11 ug/m3 0.9 ug/m3 135.23 ug/m3 21.63 ug/m3 13.75 ug/m3 0.14 mg/m3 25.17 C 58.79 % 3.29 m/s 236.94 Deg 0.21 ug/m3
2021-06-14 15:00 2.47 ug/m3 0.54 ug/m3 127.21 ug/m3 25.38 ug/m3 12.43 ug/m3 0.13 mg/m3 25.98 C 51.04 % 2.17 m/s 152.41 Deg 0.08 ug/m3
2021-06-14 14:00 2.41 ug/m3 0.74 ug/m3 125.06 ug/m3 25.48 ug/m3 15.53 ug/m3 0.13 mg/m3 24.89 C 53.01 % 4.16 m/s 44.47 Deg 0.07 ug/m3
2021-06-14 13:00 2.91 ug/m3 0.76 ug/m3 121.97 ug/m3 21.58 ug/m3 17.93 ug/m3 0.13 mg/m3 24.71 C 53.58 % 4.66 m/s 42.67 Deg 0.21 ug/m3
2021-06-14 12:00 3.24 ug/m3 0.93 ug/m3 119.39 ug/m3 19.05 ug/m3 21.33 ug/m3 0.14 mg/m3 23.33 C 71.22 % 4.28 m/s 20.24 Deg 0.43 ug/m3
2021-06-14 11:00 2.87 ug/m3 0.56 ug/m3 114.41 ug/m3 17.1 ug/m3 22.38 ug/m3 0.15 mg/m3 22.45 C 86.42 % 3.75 m/s 193.72 Deg 0.38 ug/m3
2021-06-14 10:00 1.88 ug/m3 0.33 ug/m3 110 ug/m3 20.28 ug/m3 23 ug/m3 0.15 mg/m3 21.54 C 91.1 % 4.24 m/s 339.72 Deg 0.2 ug/m3
2021-06-14 09:00 1.37 ug/m3 0.16 ug/m3 108.43 ug/m3 23.6 ug/m3 19.98 ug/m3 0.15 mg/m3 20.65 C 95.4 % 3.79 m/s 323.15 Deg 0.14 ug/m3
2021-06-14 08:00 1.4 ug/m3 0.17 ug/m3 105.2 ug/m3 18.15 ug/m3 17.93 ug/m3 0.15 mg/m3 20.87 C 95.19 % 4.47 m/s 267.14 Deg 0.09 ug/m3
2021-06-14 07:00 0.96 ug/m3 0.13 ug/m3 107.31 ug/m3 16.93 ug/m3 18.13 ug/m3 0.15 mg/m3 20.82 C 94.52 % 5.58 m/s 246.71 Deg 0.05 ug/m3
2021-06-14 06:00 0.98 ug/m3 0.01 ug/m3 107.18 ug/m3 14.13 ug/m3 16.28 ug/m3 0.14 mg/m3 20.6 C 95.75 % 4.12 m/s 277.69 Deg 0.02 ug/m3
2021-06-14 05:00 1.08 ug/m3 0.07 ug/m3 111.82 ug/m3 18.28 ug/m3 17.63 ug/m3 0.14 mg/m3 20.44 C 91.94 % 3.88 m/s 273.94 Deg 0 ug/m3
2021-06-14 04:00 1.2 ug/m3 0.03 ug/m3 107.73 ug/m3 14.3 ug/m3 17.93 ug/m3 0.15 mg/m3 20.54 C 97.62 % 2.41 m/s 256.94 Deg 0 ug/m3
2021-06-14 03:00 2.09 ug/m3 0.03 ug/m3 105.72 ug/m3 14.8 ug/m3 17.95 ug/m3 0.14 mg/m3 20.72 C 95.73 % 2.07 m/s 232.03 Deg 0.01 ug/m3
2021-06-14 02:00 2.64 ug/m3 0.22 ug/m3 109.65 ug/m3 17.7 ug/m3 18.45 ug/m3 0.14 mg/m3 20.7 C 91.61 % 2.56 m/s 222.18 Deg 0.01 ug/m3
2021-06-14 01:00 2.43 ug/m3 0.27 ug/m3 117.12 ug/m3 17.7 ug/m3 15.5 ug/m3 0.15 mg/m3 20.81 C 89.45 % 2.67 m/s 224.74 Deg 0.01 ug/m3
2021-06-14 00:00 2.74 ug/m3 0.45 ug/m3 121.73 ug/m3 21.23 ug/m3 18.2 ug/m3 0.15 mg/m3 21.44 C 74.03 % 2.26 m/s 231.17 Deg 0.01 ug/m3
2021-06-13 23:00 2.74 ug/m3 0.45 ug/m3 119.34 ug/m3 22.25 ug/m3 20.23 ug/m3 0.15 mg/m3 21.01 C 82.51 % 1.85 m/s 251.5 Deg 0.01 ug/m3
2021-06-13 22:00 1.35 ug/m3 0.39 ug/m3 124.02 ug/m3 20.85 ug/m3 20.53 ug/m3 0.16 mg/m3 20.81 C 90.22 % 1.42 m/s 328.84 Deg 0.01 ug/m3
2021-06-13 21:00 0.96 ug/m3 0.35 ug/m3 124.8 ug/m3 23.48 ug/m3 22.15 ug/m3 0.16 mg/m3 20.94 C 90.03 % 1.91 m/s 330.26 Deg 0.01 ug/m3
2021-06-13 20:00 1.07 ug/m3 0.36 ug/m3 130.07 ug/m3 23.83 ug/m3 22.33 ug/m3 0.16 mg/m3 21.31 C 88.4 % 2.73 m/s 303.25 Deg 0.01 ug/m3
2021-06-13 19:00 1.24 ug/m3 0.38 ug/m3 135.02 ug/m3 16.78 ug/m3 21.23 ug/m3 0.16 mg/m3 21.85 C 85.18 % 3.25 m/s 269.38 Deg 0.02 ug/m3
2021-06-13 18:00 0.55 ug/m3 0.43 ug/m3 122.03 ug/m3 19.97 ug/m3 21.37 ug/m3 0.16 mg/m3 22.46 C 84.5 % 3.71 m/s 265.24 Deg 0.02 ug/m3
2021-06-13 17:00 0.71 ug/m3 0.59 ug/m3 122.21 ug/m3 18.43 ug/m3 21.47 ug/m3 0.16 mg/m3 22.88 C 84.04 % 3.96 m/s 248.52 Deg 0.02 ug/m3
2021-06-13 16:00 1.5 ug/m3 0.74 ug/m3 138.6 ug/m3 22.43 ug/m3 22.4 ug/m3 0.17 mg/m3 23.56 C 76.66 % 4.56 m/s 222.31 Deg 0.06 ug/m3
2021-06-13 15:00 1.87 ug/m3 1.32 ug/m3 139.78 ug/m3 21.08 ug/m3 19.9 ug/m3 0.17 mg/m3 24.04 C 72.23 % 3.62 m/s 201.03 Deg 0.08 ug/m3
2021-06-13 14:00 1.71 ug/m3 1.81 ug/m3 139.46 ug/m3 19.3 ug/m3 22.43 ug/m3 0.16 mg/m3 24.04 C 70.54 % 2.33 m/s 313.93 Deg 0.07 ug/m3
2021-06-13 13:00 2.05 ug/m3 1.49 ug/m3 136.9 ug/m3 24.45 ug/m3 22.33 ug/m3 0.16 mg/m3 24.09 C 70.94 % 2.55 m/s 273.3 Deg 0.13 ug/m3
2021-06-13 12:00 1.9 ug/m3 1.25 ug/m3 131.53 ug/m3 23.65 ug/m3 21.3 ug/m3 0.16 mg/m3 24.56 C 68.25 % 3.21 m/s 89.04 Deg 0.13 ug/m3
2021-06-13 11:00 1.76 ug/m3 0.58 ug/m3 119.23 ug/m3 17.03 ug/m3 22.68 ug/m3 0.16 mg/m3 23.75 C 76.68 % 2.85 m/s 73.17 Deg 0.13 ug/m3
2021-06-13 10:00 1.02 ug/m3 0.28 ug/m3 117.49 ug/m3 18.78 ug/m3 21.55 ug/m3 0.15 mg/m3 22.63 C 78.1 % 3.97 m/s 40.84 Deg 0.06 ug/m3
2021-06-13 09:00 0.94 ug/m3 0.15 ug/m3 116.3 ug/m3 26.15 ug/m3 20.78 ug/m3 0.15 mg/m3 21.51 C 86.65 % 3.87 m/s 38.25 Deg 0.08 ug/m3
2021-06-13 08:00 0.84 ug/m3 0.17 ug/m3 115.91 ug/m3 22.58 ug/m3 21.68 ug/m3 0.16 mg/m3 20.86 C 90.78 % 3.41 m/s 20.31 Deg 0.06 ug/m3
2021-06-13 07:00 3.04 ug/m3 0.23 ug/m3 111.62 ug/m3 22.05 ug/m3 22.38 ug/m3 0.15 mg/m3 20.68 C 91.84 % 0.9 m/s 196.38 Deg 0.21 ug/m3
2021-06-13 06:00 1.38 ug/m3 0.06 ug/m3 111.13 ug/m3 21.57 ug/m3 20.43 ug/m3 0.16 mg/m3 19.77 C 96.31 % 1.07 m/s 172.94 Deg 0.03 ug/m3
2021-06-13 05:00 1.02 ug/m3 0.02 ug/m3 106.75 ug/m3 20.95 ug/m3 17.08 ug/m3 0.16 mg/m3 19.72 C 97.24 % 0.99 m/s 148.79 Deg 0.01 ug/m3
2021-06-13 04:00 0.95 ug/m3 0.07 ug/m3 111.98 ug/m3 18.58 ug/m3 18.4 ug/m3 0.15 mg/m3 19.73 C 97.3 % 2.17 m/s 229.64 Deg 0 ug/m3
2021-06-13 03:00 1.38 ug/m3 0.03 ug/m3 110.2 ug/m3 17.43 ug/m3 21.5 ug/m3 0.15 mg/m3 19.81 C 98.6 % 1.42 m/s 252.29 Deg -0 ug/m3
2021-06-13 02:00 1.56 ug/m3 0.04 ug/m3 108.92 ug/m3 20.68 ug/m3 19.9 ug/m3 0.14 mg/m3 20.12 C 99.63 % 2.13 m/s 274.84 Deg 0.01 ug/m3
2021-06-13 01:00 1.42 ug/m3 0.09 ug/m3 111.99 ug/m3 21.3 ug/m3 20.4 ug/m3 0.15 mg/m3 20.26 C 99.49 % 2.76 m/s 254.04 Deg 0.02 ug/m3
2021-06-13 00:00 1.97 ug/m3 0.05 ug/m3 109.92 ug/m3 12.53 ug/m3 18.3 ug/m3 0.15 mg/m3 20.31 C 99.03 % 2.9 m/s 255.44 Deg 0 ug/m3
2021-06-12 23:00 0.58 ug/m3 0.04 ug/m3 120.29 ug/m3 18.45 ug/m3 19.78 ug/m3 0.15 mg/m3 20.33 C 98.31 % 2.69 m/s 252.71 Deg 0.01 ug/m3
2021-06-12 22:00 0.57 ug/m3 0.03 ug/m3 121.19 ug/m3 14.5 ug/m3 20.1 ug/m3 0.15 mg/m3 20.43 C 97.99 % 1.79 m/s 236.3 Deg 0.01 ug/m3
2021-06-12 21:00 0.93 ug/m3 0.12 ug/m3 118.43 ug/m3 11.58 ug/m3 19.73 ug/m3 0.15 mg/m3 20.56 C 97.23 % 1.58 m/s 261.43 Deg 0.01 ug/m3
2021-06-12 20:00 0.73 ug/m3 0.2 ug/m3 124.39 ug/m3 22.15 ug/m3 19.98 ug/m3 0.15 mg/m3 20.83 C 95.43 % 1.98 m/s 326.7 Deg 0.01 ug/m3
2021-06-12 19:00 1.53 ug/m3 0.38 ug/m3 125.11 ug/m3 29.38 ug/m3 20.4 ug/m3 0.15 mg/m3 21.07 C 92.65 % 3.17 m/s 317.4 Deg 0.02 ug/m3
2021-06-12 18:00 0.61 ug/m3 0.48 ug/m3 117.59 ug/m3 8.6 ug/m3 22.9 ug/m3 0.15 mg/m3 21.4 C 90.56 % 3.22 m/s 282.87 Deg 0.01 ug/m3
2021-06-12 17:00 1.62 ug/m3 0.82 ug/m3 122.4 ug/m3 31.15 ug/m3 21.83 ug/m3 0.15 mg/m3 21.94 C 90.77 % 3.68 m/s 242.03 Deg 0.12 ug/m3
2021-06-12 16:00 0.84 ug/m3 0.96 ug/m3 123.95 ug/m3 28.58 ug/m3 24.28 ug/m3 0.15 mg/m3 22.82 C 80.53 % 2.78 m/s 255.18 Deg 0.05 ug/m3
2021-06-12 15:00 1.36 ug/m3 0.56 ug/m3 128.72 ug/m3 26.43 ug/m3 24.18 ug/m3 0.15 mg/m3 21.3 C 90.71 % 4.11 m/s 232.95 Deg 0.1 ug/m3
2021-06-12 14:00 1.97 ug/m3 0.65 ug/m3 133.39 ug/m3 11.9 ug/m3 21.1 ug/m3 0.15 mg/m3 21.74 C 88.92 % 4.13 m/s 241.46 Deg 0.17 ug/m3
2021-06-12 13:00 2.61 ug/m3 0.75 ug/m3 127.71 ug/m3 20 ug/m3 25.83 ug/m3 0.15 mg/m3 21.6 C 89.37 % 3.97 m/s 239.62 Deg 0.31 ug/m3
2021-06-12 12:00 0.96 ug/m3 0.58 ug/m3 117.59 ug/m3 18.05 ug/m3 24.85 ug/m3 0.15 mg/m3 21.66 C 88.06 % 3.14 m/s 268.66 Deg 0.06 ug/m3
2021-06-12 11:00 0.8 ug/m3 0.56 ug/m3 112.02 ug/m3 24.23 ug/m3 19.58 ug/m3 0.15 mg/m3 21.29 C 90.03 % 3.51 m/s 326.47 Deg 0.06 ug/m3
2021-06-12 10:00 9.89 ug/m3 1.1 ug/m3 101.82 ug/m3 26.5 ug/m3 16.53 ug/m3 0.15 mg/m3 21.28 C 91.01 % 3.87 m/s 290.72 Deg 2.22 ug/m3
2021-06-12 09:00 6.63 ug/m3 0.52 ug/m3 111.04 ug/m3 28.43 ug/m3 15.93 ug/m3 0.15 mg/m3 20.91 C 90.27 % 4.49 m/s 260.97 Deg 1.26 ug/m3
2021-06-12 08:00 0.8 ug/m3 0.19 ug/m3 115.58 ug/m3 26.55 ug/m3 17.93 ug/m3 0.14 mg/m3 20.42 C 94.26 % 4.6 m/s 267.17 Deg 0.06 ug/m3
2021-06-12 07:00 0.85 ug/m3 0.06 ug/m3 111.3 ug/m3 22.25 ug/m3 17.25 ug/m3 0.14 mg/m3 20.02 C 95.98 % 4.5 m/s 274.47 Deg 0.04 ug/m3
2021-06-12 06:00 1.93 ug/m3 0.14 ug/m3 108.47 ug/m3 16.98 ug/m3 17.48 ug/m3 0.14 mg/m3 19.66 C 97.16 % 4.7 m/s 266.67 Deg 0.02 ug/m3
2021-06-12 05:00 4.57 ug/m3 0.11 ug/m3 101.66 ug/m3 16.05 ug/m3 19.43 ug/m3 0.14 mg/m3 19.41 C 98.54 % 3.53 m/s 261.95 Deg 0.03 ug/m3
2021-06-12 04:00 1.23 ug/m3 0.13 ug/m3 102.02 ug/m3 17.78 ug/m3 19.7 ug/m3 0.14 mg/m3 19.31 C 98.88 % 3.12 m/s 245.68 Deg 0.01 ug/m3
2021-06-12 03:00 2.06 ug/m3 0.11 ug/m3 102.99 ug/m3 15.9 ug/m3 17.35 ug/m3 0.14 mg/m3 19.39 C 98.99 % 2.84 m/s 242.57 Deg 0.01 ug/m3
2021-06-12 02:00 1.08 ug/m3 0.09 ug/m3 113.21 ug/m3 15.7 ug/m3 17.13 ug/m3 0.14 mg/m3 19.62 C 99.45 % 2.72 m/s 240.08 Deg 0.01 ug/m3
2021-06-12 01:00 1.48 ug/m3 0.15 ug/m3 108.29 ug/m3 17.4 ug/m3 19.5 ug/m3 0.15 mg/m3 19.78 C 98.6 % 2.21 m/s 246.28 Deg 0.01 ug/m3
2021-06-12 00:00 2.78 ug/m3 0.2 ug/m3 103.63 ug/m3 20.1 ug/m3 20.4 ug/m3 0.15 mg/m3 19.73 C 98.21 % 2.2 m/s 256.37 Deg 0.01 ug/m3
2021-06-11 23:00 6.36 ug/m3 0.36 ug/m3 97.95 ug/m3 29.03 ug/m3 20.63 ug/m3 0.16 mg/m3 20.02 C 98.38 % 1.69 m/s 253.87 Deg 0.01 ug/m3
2021-06-11 22:00 8.04 ug/m3 0.54 ug/m3 105.03 ug/m3 27.95 ug/m3 21.2 ug/m3 0.16 mg/m3 20.03 C 97.19 % 1.6 m/s 265.66 Deg 0.01 ug/m3
2021-06-11 21:00 4.5 ug/m3 0.53 ug/m3 120.98 ug/m3 25.13 ug/m3 17.58 ug/m3 0.16 mg/m3 20.12 C 95.53 % 1.41 m/s 299.03 Deg 0.01 ug/m3
2021-06-11 20:00 9.51 ug/m3 0.59 ug/m3 116.7 ug/m3 24.9 ug/m3 14.88 ug/m3 0.16 mg/m3 20.41 C 94.41 % 1.95 m/s 248.3 Deg 0.02 ug/m3
2021-06-11 19:00 3.84 ug/m3 0.64 ug/m3 127.56 ug/m3 28.38 ug/m3 13.2 ug/m3 0.15 mg/m3 20.81 C 92.29 % 2.84 m/s 321.4 Deg 0.07 ug/m3
2021-06-11 18:00 1.55 ug/m3 0.55 ug/m3 140.93 ug/m3 9.83 ug/m3 4.27 ug/m3 0.15 mg/m3 21.16 C 88.94 % 3.91 m/s 301.64 Deg 0.06 ug/m3
2021-06-11 17:00 1.03 ug/m3 0.61 ug/m3 134.12 ug/m3 0 ug/m3 0 ug/m3 0.15 mg/m3 21.5 C 85.64 % 4.22 m/s 266.04 Deg 0.05 ug/m3
2021-06-11 16:00 0.97 ug/m3 0.56 ug/m3 128.31 ug/m3 15.2 ug/m3 13.28 ug/m3 0.15 mg/m3 22.02 C 80.92 % 3.37 m/s 269.86 Deg 0.05 ug/m3
2021-06-11 15:00 1.76 ug/m3 0.75 ug/m3 128.82 ug/m3 21.17 ug/m3 20.83 ug/m3 0.15 mg/m3 22.16 C 77 % 3.57 m/s 281.6 Deg 0.13 ug/m3

It is to be noted that the data is provisional and subject to quality assurance procedures. For validated data kindly refer your request to contact.air@era.org.mt